This demonstration page uses our WeatherBlox Daily Observations layout. Learn more.

38.89511, -77.03637

Hourly Observations for September 18, 2015

Temp ( °F °C ) Dew Point ( °F °C ) Humidity (%) Winds ( mph kmh ) Pressure ( in mb ) Visibility ( mi km ) Precip ( " mm )
12:52 am 00:52 Clear 70 21 61 16 73 73 SSW 7 11 30.09 1019 10 16.09344 0 0
1:52 am 01:52 Clear 68 20 61 16 78 78 SSW 7 11 30.06 1018 10 16.09344 0 0
2:52 am 02:52 Clear 68 20 63 17 83 83 SW 5 7 30.06 1018 10 16.09344 0 0
3:52 am 03:52 Clear 66 19 61 16 83 83 SSW 5 7 30.03 1017 10 16.09344 0 0
4:52 am 04:52 Mostly Clear 66 19 61 16 83 83 SW 3 6 30.03 1017 10 16.09344 0 0
5:52 am 05:52 Mostly Clear 64 18 63 17 94 94 Calm 30.03 1017 10 16.09344 0 0
6:25 am 06:25 Mostly Clear 64 18 61 16 88 88 Calm 30.06 1018 10 16.09344 0 0
6:52 am 06:52 Mostly Clear 64 18 63 17 94 94 Calm 30.06 1018 10 16.09344 0 0
7:52 am 07:52 Mostly Sunny 66 19 63 17 88 88 SE 3 6 30.06 1018 10 16.09344 0 0
8:52 am 08:52 Sunny 70 21 64 18 83 83 S 3 6 30.06 1018 10 16.09344 0 0
9:52 am 09:52 Sunny 72 22 64 18 78 78 SSE 5 7 30.06 1018 10 16.09344 0 0
10:52 am 10:52 Sunny 75 24 63 17 65 65 S 7 11 30.06 1018 10 16.09344 0 0
11:52 am 11:52 Mostly Sunny 81 27 61 16 51 51 S 8 13 30.06 1018 10 16.09344 0 0
12:52 pm 12:52 Partly Cloudy 84 29 59 15 43 43 SSW 6 9 30.03 1017 10 16.09344 0 0
1:52 pm 13:52 Partly Cloudy 84 29 54 12 35 35 N 3 6 30.03 1017 10 16.09344 0 0
2:52 pm 14:52 Partly Cloudy 86 30 54 12 33 33 S 7 11 30 1016 10 16.09344 0 0
3:52 pm 15:52 Partly Cloudy 86 30 55 13 35 35 SSW 9 15 29.97 1015 10 16.09344 0 0
4:52 pm 16:52 Mostly Sunny 84 29 57 14 40 40 SSW 9 15 29.94 1014 10 16.09344 0 0
5:52 pm 17:52 Mostly Sunny 82 28 61 16 48 48 S 12 19 29.94 1014 10 16.09344 0 0
6:52 pm 18:52 Mostly Sunny 81 27 59 15 48 48 SSE 9 15 29.97 1015 10 16.09344 0 0
7:52 pm 19:52 Mostly Clear 77 25 59 15 54 54 SSE 8 13 29.97 1015 10 16.09344 0 0
8:52 pm 20:52 Clear 75 24 57 14 54 54 S 8 13 30 1016 10 16.09344 0 0
9:52 pm 21:52 Clear 73 23 59 15 61 61 S 8 13 30 1016 10 16.09344 0 0
10:52 pm 22:52 Clear 72 22 63 17 73 73 S 9 15 30 1016 10 16.09344 0 0
11:52 pm 23:52 Clear 72 22 64 18 78 78 S 9 15 30 1016 10 16.09344 0 0

Powered by AerisWeather